ECMWFNIL_sfc_thetae_000.txt.gz
Theta_e
343 342 340 339 336 336 333 332 334 335 336 336 335 334 335 338 340 340 340 338 339 337 336 336 339 340 341 340 340 340 340 339 339 337 337 339 337 335 335 334 334 336
338 340 341 338 337 338 335 334 335 335 335 335 335 334 335 338 339 339 338 337 339 338 337 337 338 339 338 339 339 338 338 339 339 341 338 337 338 336 336 336 336 337
336 337 337 334 334 335 335 335 336 335 335 334 334 334 334 338 338 338 337 336 336 338 337 337 337 337 338 338 337 337 338 337 336 337 338 338 338 337 337 336 336 336
335 336 335 333 333 334 335 335 334 335 335 333 332 333 335 338 337 336 335 341 335 336 337 336 337 336 336 337 336 336 336 336 337 337 337 338 338 338 337 337 337 337
334 334 334 333 332 335 335 334 333 333 333 333 332 334 337 337 335 335 335 337 336 335 335 336 336 336 336 336 336 336 336 336 337 336 335 335 336 336 336 337 336 336
335 335 334 332 333 333 333 333 333 332 332 331 332 335 335 335 335 334 334 334 335 335 335 335 335 335 336 336 335 334 335 335 336 336 335 334 335 336 335 336 335 334
334 333 333 333 333 333 333 333 333 335 332 333 333 333 335 334 334 334 334 334 334 336 335 335 334 334 334 334 334 334 335 335 336 335 334 334 335 335 335 335 335 334
334 333 334 333 332 332 332 332 332 334 333 333 332 333 334 333 333 334 335 334 334 334 335 334 333 333 333 334 334 334 334 335 335 335 334 334 334 334 335 335 335 334
335 334 333 332 332 331 331 331 332 333 334 333 332 332 334 334 333 333 335 335 334 335 334 333 333 334 334 334 334 333 333 333 334 334 334 334 334 335 335 336 334 334
335 335 333 332 331 332 332 332 332 333 334 333 333 332 332 335 335 335 335 335 334 334 333 333 332 332 333 332 332 332 332 332 333 333 333 334 334 335 335 335 334 333
335 334 333 333 332 332 332 333 332 333 334 333 333 332 333 333 335 335 334 333 333 333 332 332 332 333 332 331 331 331 332 332 333 333 333 333 334 334 335 335 333 332
335 334 333 333 332 332 332 333 333 333 334 335 334 332 332 332 333 334 334 333 333 333 333 333 333 333 332 332 331 331 331 332 332 332 333 333 333 333 333 333 333 333
335 334 334 334 334 333 334 333 333 334 334 335 336 334 333 332 332 333 335 334 333 333 333 333 333 333 332 331 331 331 331 331 331 332 333 334 334 334 334 334 333 333
337 336 335 336 337 334 334 334 334 334 334 335 336 334 333 333 332 332 333 334 334 334 334 335 333 332 331 330 330 331 332 332 332 333 333 333 334 334 334 333 333 333
337 336 336 336 336 334 333 334 335 335 335 334 335 335 335 334 334 333 332 332 334 334 334 334 333 331 331 331 331 332 332 332 332 332 333 333 333 332 332 332 332 332
339 336 334 334 334 334 334 334 333 334 334 334 334 334 335 335 334 333 333 332 332 333 333 333 332 332 332 328 330 333 332 332 332 332 332 332 332 332 332 332 331 331
333 332 332 333 333 333 333 334 334 335 334 333 334 333 333 335 334 332 331 332 332 332 331 331 331 331 328 325 326 329 333 333 331 331 331 331 331 331 330 331 333 332
335 334 334 333 332 332 331 332 333 333 333 332 332 333 333 332 333 331 331 331 330 330 330 330 330 328 323 324 326 326 329 334 333 331 330 330 330 331 331 331 331 331
334 333 333 333 332 333 332 332 331 332 332 332 332 333 333 331 331 331 331 330 329 329 329 330 330 327 323 323 324 324 325 328 332 332 331 331 331 330 330 329 329 329
333 331 331 331 332 332 332 331 331 332 333 333 333 333 332 332 332 331 332 331 330 330 330 331 332 326 323 322 322 322 323 326 330 330 330 331 330 330 329 328 328 327
333 331 332 333 331 330 330 330 330 331 332 332 332 332 331 331 331 330 331 332 332 332 332 332 333 325 321 320 319 319 321 324 328 328 329 329 328 327 327 327 326 326
331 328 329 330 330 329 328 328 327 328 328 329 330 330 331 331 331 331 331 332 332 332 332 331 333 324 321 320 319 319 321 325 327 327 327 327 326 326 324 325 325 325
331 329 329 328 328 328 327 328 327 328 328 329 327 327 329 330 330 330 332 331 332 332 331 331 332 327 320 318 317 318 320 325 325 325 324 324 324 323 324 324 324 325
330 329 329 329 325 324 325 326 327 326 326 329 328 327 328 329 331 330 330 331 331 332 331 330 330 327 318 315 315 316 318 325 324 323 323 322 322 321 321 323 323 326
331 329 328 327 326 327 329 327 325 326 328 329 329 329 330 329 331 330 329 328 326 327 332 331 329 325 319 318 318 315 319 324 322 321 320 321 320 320 319 321 321 322
330 329 328 327 326 327 327 329 328 328 328 329 330 330 330 328 329 329 328 327 327 329 327 327 326 325 325 317 316 313 314 322 320 321 321 321 319 319 321 321 320 319

ECMWFNIL_sfc_thetae_003.txt.gz
Theta_e
365 365 363 361 360 359 357 355 353 353 353 352 349 349 350 350 353 353 351 351 351 347 347 348 347 347 345 347 349 348 347 346 345 346 346 345 344 342 340 339 341 341
365 365 363 362 360 359 357 356 354 353 352 353 351 352 352 353 352 352 351 350 351 348 348 346 349 349 348 345 349 347 347 347 346 347 348 347 346 345 341 343 342 343
364 363 361 360 357 356 354 354 354 353 352 351 353 353 352 352 352 353 352 350 350 346 348 348 347 349 347 347 349 347 344 346 345 343 348 348 347 346 346 340 342 343
362 361 359 358 357 356 354 352 351 352 352 351 351 350 351 350 351 351 352 351 350 349 347 347 345 345 347 345 346 345 344 346 342 344 346 347 348 347 345 345 343 343
360 358 357 357 356 356 354 351 348 349 349 349 350 351 350 350 350 349 350 350 350 348 348 348 348 346 348 344 346 343 343 341 342 347 345 342 343 345 344 345 344 343
358 356 355 355 355 354 352 349 349 348 348 348 349 349 348 349 349 349 349 347 346 344 344 344 346 344 344 343 346 345 341 338 339 343 342 341 339 340 341 344 344 343
355 354 353 353 353 352 351 350 349 349 348 348 350 347 348 347 348 348 349 348 346 345 344 344 345 342 345 346 347 345 346 344 341 342 340 338 339 338 340 344 344 344
355 353 352 350 349 349 348 347 346 348 349 348 346 347 346 344 346 346 347 347 345 346 346 345 345 346 343 345 344 344 343 343 340 340 339 339 340 340 338 339 343 344
352 351 350 348 346 344 342 340 343 344 345 345 343 342 344 345 345 344 346 346 345 345 347 346 347 346 346 345 345 344 340 339 340 340 340 338 337 337 337 340 342 343
349 345 344 343 340 340 339 339 340 339 341 340 339 340 340 342 343 343 344 345 344 345 346 346 346 345 345 346 345 344 343 341 342 343 342 341 339 338 337 340 340 341
347 346 343 342 341 339 338 336 337 337 339 337 337 338 338 338 341 341 342 343 342 344 345 345 345 346 345 345 345 346 345 343 343 344 343 342 342 342 342 342 343 342
348 347 344 342 341 341 337 337 337 338 337 338 337 336 336 338 339 340 341 342 343 344 345 346 347 347 345 344 343 344 345 344 343 343 342 343 343 344 344 345 344 343
349 348 345 342 340 341 341 340 339 336 337 337 337 337 337 337 339 339 341 342 343 344 345 346 347 346 345 346 346 346 345 344 342 343 343 343 344 343 342 343 344 344
350 349 346 345 343 343 342 340 340 339 338 338 338 337 336 336 337 337 340 341 342 343 344 345 345 345 345 346 346 346 345 345 344 343 342 343 344 344 343 342 343 343
350 347 347 345 342 341 341 341 340 337 334 337 337 337 336 337 339 339 340 340 341 341 342 343 343 343 344 345 344 345 346 344 344 343 343 343 343 342 343 344 344 344
349 347 346 344 341 341 339 340 338 334 333 335 336 337 338 339 339 339 339 340 340 340 341 343 343 343 338 330 334 344 345 344 344 344 344 343 343 342 342 342 343 342
349 346 346 344 343 342 341 341 335 330 328 331 335 337 338 339 341 339 338 339 339 340 339 340 340 340 330 326 326 328 339 343 343 344 344 343 342 342 341 341 343 344
348 346 345 344 343 342 341 340 336 332 331 333 336 336 337 339 340 339 340 340 340 339 338 339 339 332 326 325 326 326 329 338 341 341 341 341 341 341 342 342 341 341
346 344 344 341 340 339 338 338 335 334 334 334 334 336 336 336 338 338 338 339 338 337 337 337 337 331 324 323 324 324 325 329 337 340 340 340 341 341 342 342 342 340
343 341 338 336 336 336 336 336 336 335 335 336 336 335 334 334 336 338 339 337 336 335 336 337 337 329 323 321 321 321 322 327 335 337 338 338 339 340 341 341 341 340
340 337 334 334 335 338 340 337 335 337 338 338 338 338 335 335 337 337 338 337 337 336 336 336 336 327 322 319 318 318 319 325 334 335 337 338 338 338 339 337 336 336
339 336 335 335 337 339 338 337 337 337 337 341 341 340 339 339 340 339 333 333 337 338 337 336 336 325 322 321 318 318 320 331 335 336 336 336 336 337 337 335 333 333
340 337 337 337 337 337 336 336 336 336 337 340 338 339 337 337 337 335 334 335 336 337 336 336 336 328 319 316 316 317 320 335 335 335 334 334 334 334 334 332 332 333
343 340 338 338 338 337 336 335 336 336 337 338 335 335 334 335 336 336 335 336 336 337 337 338 338 327 314 314 315 316 324 336 336 334 333 331 332 333 332 331 331 330
342 341 339 338 335 335 334 333 333 335 335 334 333 334 334 336 336 335 336 337 336 338 334 336 338 329 316 314 313 315 326 340 336 331 328 328 331 332 331 331 333 329
340 340 338 335 333 334 338 337 333 332 331 330 331 332 332 333 333 335 338 337 337 338 335 334 335 337 332 313 314 315 319 333 332 329 327 329 331 330 330 331 331 330

ECMWFNIL_sfc_thetae_006.txt.gz
Theta_e
367 367 364 362 361 361 361 360 360 360 361 358 357 356 353 356 356 354 352 352 351 349 348 348 346 345 343 344 345 345 344 344 345 344 345 344 342 341 340 340 341 340
368 368 367 365 363 363 363 363 363 361 361 361 359 357 357 356 353 353 353 350 349 348 349 346 347 345 344 342 343 342 343 345 344 345 344 344 344 343 340 341 340 341
368 368 368 366 362 364 362 364 363 361 360 360 360 358 356 356 355 354 352 350 348 346 347 347 347 346 344 343 344 343 342 344 343 341 344 344 343 341 342 339 340 339
370 370 368 366 364 364 364 362 363 362 361 359 358 357 356 356 354 352 351 349 348 347 347 347 346 345 344 343 343 343 343 343 343 344 343 344 343 342 341 341 340 340
370 369 369 367 365 366 365 362 360 361 360 360 360 359 357 355 353 351 349 348 349 348 347 347 346 344 345 344 343 342 341 340 342 343 342 341 343 342 341 341 340 338
370 370 370 368 368 367 364 363 364 363 362 359 360 358 357 355 353 349 348 347 347 346 346 346 345 343 344 345 344 343 341 339 340 342 341 341 340 340 339 340 340 339
368 369 368 370 369 369 367 366 365 364 362 361 362 358 357 355 352 349 349 348 346 347 345 345 345 344 344 344 344 342 342 341 341 341 340 341 341 340 339 339 340 338
368 366 368 369 367 367 366 365 363 362 363 362 360 359 356 352 352 350 350 348 345 346 346 345 344 345 341 342 341 339 341 341 341 341 340 340 340 339 339 339 339 338
368 368 367 366 365 365 362 361 362 362 362 361 358 355 357 354 353 351 351 350 348 347 348 346 345 343 342 340 339 340 341 341 341 341 340 339 338 338 339 339 338 338
367 365 364 362 361 362 360 360 359 360 360 359 356 354 352 352 351 351 351 350 348 348 348 346 344 342 341 340 339 341 342 342 341 341 340 339 339 339 338 338 337 337
364 363 361 361 359 358 357 357 355 355 357 355 352 350 352 353 351 350 350 349 345 345 345 345 343 342 341 340 340 342 342 341 341 341 341 340 340 339 338 339 338 337
363 361 359 359 358 359 357 354 352 353 352 351 350 348 348 347 347 347 345 342 342 342 344 344 343 342 342 342 340 341 341 341 340 341 340 340 340 340 340 340 338 337
361 360 360 358 359 357 355 351 348 347 347 345 346 347 345 344 347 345 344 344 344 344 343 342 342 342 343 344 344 343 341 341 341 340 340 340 340 339 339 338 336 336
361 363 363 360 356 352 350 348 348 348 348 347 348 345 343 344 343 343 344 344 345 344 343 343 343 342 343 345 345 343 342 341 341 340 339 340 340 340 339 337 337 336
364 362 360 350 348 345 344 345 345 344 343 342 344 343 347 347 342 340 341 341 342 342 343 343 342 342 343 345 345 344 343 341 340 339 339 339 339 339 340 340 341 341
363 362 354 347 345 344 342 342 341 338 338 337 338 340 344 345 345 344 341 341 341 342 344 344 344 344 338 332 337 343 344 344 341 341 340 338 336 338 338 340 341 340
361 357 348 344 342 340 340 338 337 337 337 337 338 339 339 343 342 342 341 340 340 342 343 344 344 343 331 329 330 333 343 344 342 342 342 340 336 337 338 340 338 339
359 353 345 342 343 343 344 345 344 341 340 340 341 341 341 340 339 340 342 341 341 343 343 344 344 333 327 327 328 328 331 341 342 342 340 339 339 337 336 336 336 340
358 353 346 344 345 345 347 347 347 345 344 343 342 343 345 343 342 343 343 344 343 343 342 342 343 332 326 326 326 326 326 332 338 340 340 341 340 341 342 341 341 343
357 354 348 346 345 345 345 345 345 345 345 344 343 343 342 342 342 343 344 345 344 344 342 343 345 331 325 323 323 324 325 329 335 336 337 338 339 339 339 340 342 343
356 354 349 346 345 344 344 344 344 344 344 343 342 341 341 341 341 343 342 343 344 344 345 345 344 326 322 322 320 320 322 328 334 335 336 337 339 341 343 343 343 342
355 352 350 348 347 347 346 345 345 345 344 344 343 342 343 343 343 343 342 342 342 343 342 342 341 325 322 321 319 319 322 332 336 337 338 339 341 343 344 345 344 341
353 351 350 349 348 347 346 346 344 344 346 348 346 344 342 342 343 341 342 341 341 340 339 339 339 329 320 319 319 318 323 338 340 340 340 341 342 343 343 343 342 341
353 353 352 350 349 348 348 347 345 346 346 348 346 343 341 340 340 340 342 341 339 338 337 338 338 330 318 317 316 316 327 341 342 341 342 341 341 343 341 341 339 336
352 352 352 349 349 349 349 347 347 347 347 346 344 342 341 341 340 341 340 339 338 338 333 336 338 331 317 316 314 315 329 344 342 340 338 339 338 340 341 339 336 334
351 351 349 349 349 349 348 347 347 346 345 344 343 342 341 341 341 341 339 338 339 338 339 338 338 342 335 313 313 312 319 342 342 341 339 337 338 335 335 335 335 335

ECMWFNIL_sfc_thetae_009.txt.gz
Theta_e
366 366 365 364 363 362 362 361 359 359 359 356 354 356 355 356 356 353 351 351 350 348 349 350 349 348 344 345 345 345 344 345 344 342 343 343 342 341 340 339 340 341
367 366 366 366 364 364 364 362 362 360 359 359 358 356 357 356 354 353 351 349 349 348 350 348 350 348 346 343 344 343 343 344 343 342 342 343 344 343 341 342 341 341
367 365 365 364 361 363 361 362 363 361 358 360 359 358 356 356 355 354 353 350 349 348 348 349 349 347 345 344 345 343 341 343 342 340 343 343 343 343 344 338 340 340
368 367 365 364 362 362 362 361 362 362 360 357 356 356 355 356 355 352 352 351 350 349 348 347 347 346 345 344 344 343 343 343 343 343 342 343 344 344 343 343 341 340
369 368 366 365 364 363 363 361 359 360 358 356 356 357 358 357 356 353 352 351 351 348 348 347 346 346 346 345 346 344 342 341 342 343 342 341 343 343 342 342 341 340
371 370 369 366 365 364 361 360 360 358 357 353 357 356 357 358 356 353 353 351 348 346 346 346 346 344 344 345 346 345 343 339 340 342 340 340 340 340 339 338 339 339
368 369 368 367 365 364 363 362 360 360 357 355 358 357 357 356 356 354 353 351 349 347 346 347 348 345 344 344 346 345 346 344 342 341 340 340 341 340 339 339 340 339
370 370 370 369 366 364 363 361 362 361 360 359 355 358 358 355 356 352 352 350 348 348 347 347 347 347 342 344 344 344 343 341 341 340 340 339 340 340 340 340 341 340
371 371 370 369 366 363 359 359 359 361 361 359 355 355 358 357 355 352 352 351 349 348 349 347 348 346 346 345 344 344 342 340 341 341 341 340 339 340 339 340 340 340
371 371 369 366 363 362 357 355 357 361 362 359 356 353 356 357 356 353 352 352 349 347 347 347 347 346 345 344 342 342 342 342 342 342 341 341 340 340 340 339 338 338
368 367 367 363 361 358 357 355 356 358 360 358 356 352 357 355 354 353 352 352 348 346 347 347 346 347 346 342 340 340 340 340 342 342 342 341 341 341 341 341 338 337
368 367 364 362 360 355 356 355 356 359 357 355 355 354 356 352 352 351 351 352 351 349 349 351 350 348 344 341 340 339 340 341 342 342 341 341 341 341 341 340 339 338
368 367 365 363 360 360 360 352 350 356 351 348 353 356 354 353 353 352 354 354 353 353 352 351 349 345 343 342 342 341 342 343 342 341 341 341 341 340 339 340 340 339
369 367 366 363 362 362 361 357 359 357 356 354 356 356 355 356 355 355 356 356 353 353 351 350 347 344 342 342 343 343 343 343 343 342 340 341 341 342 340 338 339 337
369 368 366 365 362 363 361 361 360 359 355 358 359 357 356 355 355 354 353 351 350 347 346 345 343 340 340 340 341 343 344 343 343 342 341 340 342 341 341 341 340 339
370 367 366 366 362 362 361 361 360 360 359 359 357 356 355 353 352 352 349 346 344 345 343 341 340 340 336 329 335 345 346 345 343 342 342 341 341 342 340 339 337 336
370 368 366 366 366 365 364 361 360 360 359 358 357 357 354 352 351 349 344 342 340 338 338 341 340 338 329 328 330 334 345 345 343 343 343 342 340 342 340 337 337 339
365 364 363 364 363 362 361 361 360 358 358 358 357 357 356 354 350 348 345 342 339 340 342 342 341 330 326 327 329 330 335 346 345 343 341 341 342 340 340 338 337 338
361 360 360 360 360 360 360 359 357 356 355 353 354 355 354 352 350 346 343 339 339 340 339 339 339 329 326 326 327 328 329 337 343 343 341 342 341 341 339 340 341 341
359 358 358 358 359 359 358 357 357 355 354 354 354 354 352 350 349 346 343 342 342 342 341 340 341 329 325 324 325 326 328 334 343 342 343 342 342 341 341 342 342 343
359 358 357 357 358 358 358 357 357 356 355 354 351 351 350 349 346 344 343 343 342 342 341 340 341 325 323 323 323 323 325 331 342 343 342 341 343 343 343 343 341 341
358 358 358 356 355 355 355 355 355 355 355 354 352 350 350 349 348 344 341 341 343 343 342 341 340 321 322 322 321 321 323 336 340 340 340 340 342 343 342 342 342 342
359 357 355 354 353 353 353 352 354 354 354 354 351 350 348 347 346 344 345 345 345 344 342 341 341 327 319 318 318 318 324 337 338 339 341 341 342 344 344 344 344 346
360 356 353 351 352 352 352 353 352 353 350 351 349 347 345 345 345 344 343 344 342 342 341 340 341 329 315 315 316 317 325 338 339 341 340 341 342 343 346 347 346 344
360 357 354 352 352 351 350 350 349 350 350 350 348 348 346 347 344 343 343 344 341 340 337 339 342 330 314 315 315 314 327 342 342 339 338 341 338 338 338 342 343 342
360 359 358 355 353 353 352 351 352 351 349 348 348 348 347 347 345 345 343 342 342 343 344 342 341 342 333 314 314 313 318 340 341 340 336 335 335 335 336 340 341 341